JA3VQW-13 Hirakata JP current weather conditions

sailwx.info

Wind from 135

Air temperature 8.3° C
Dewpoint 3.8° C

Last reported at 2019-Dec-11 14:33 UTC.
Time now 2019-Dec-11 16:08 UTC

Location: N 34°48' E 135°40'.
View on Google Maps.

See reports from other nearby stations

  
Tides and Currents Weather Stations Pressure Air Temp Water Temp Dewpoint Dewpoint Depression Visibility Wind Speed Wind Dir Waves Ship Positions
date/time (UTC)wind fromknots sea level pressurealtimeterstation pressurevisibilityair tempwater tempwave heightnotes
2019-Dec-11 14:33 135 8.3
2019-Dec-11 14:28 135 8.3
2019-Dec-11 13:58 090 8.9
2019-Dec-11 13:28 135 8.9
2019-Dec-11 12:58 135 8.9
2019-Dec-11 12:33 135 9.4
2019-Dec-11 12:28 135 9.4
2019-Dec-11 11:58 135 9.4
2019-Dec-11 11:28 134 2 gusting 4 10.6
2019-Dec-11 10:58 135 10.6
2019-Dec-11 10:28 315 11.1
2019-Dec-11 09:58 090 11.7
2019-Dec-11 09:28 090 11.7
2019-Dec-11 08:58 225 11.7
2019-Dec-11 08:28 225 12.2
2019-Dec-11 07:58 270 12.8
2019-Dec-11 07:28 270 13.3
2019-Dec-11 06:58 225 13.3
2019-Dec-11 06:28 250 13.9
2019-Dec-11 05:58 135 13.9
2019-Dec-11 05:28 176 13.9
2019-Dec-11 04:58 135 13.9
2019-Dec-11 04:28 135 13.9
2019-Dec-11 04:03 135 13.9
2019-Dec-11 03:58 090 13.9
2019-Dec-11 03:28 225 13.9
2019-Dec-11 02:58 315 14.4
2019-Dec-11 02:28 315 13.3
2019-Dec-11 01:58 315 13.3
2019-Dec-11 01:28 315 12.8
2019-Dec-11 00:58 315 11.7
2019-Dec-11 00:28 315 11.7
2019-Dec-10 23:58 315 10.0
2019-Dec-10 23:33 315 8.3
2019-Dec-10 23:28 315 8.3
2019-Dec-10 22:58 315 8.9
2019-Dec-10 22:28 315 5.6
2019-Dec-10 21:58 315 5.0
2019-Dec-10 21:28 315 5.0
2019-Dec-10 21:18 315 5.0
2019-Dec-10 20:58 315 5.6
2019-Dec-10 20:28 315 6.1
2019-Dec-10 19:58 315 6.7
2019-Dec-10 19:28 315 6.7
2019-Dec-10 18:58 315 6.7
2019-Dec-10 18:28 315 7.2
2019-Dec-10 17:58 315 7.8
2019-Dec-10 17:28 315 7.8
2019-Dec-10 16:58 315 8.3
2019-Dec-10 16:28 315 8.3
2019-Dec-10 15:58 315 8.9
2019-Dec-10 15:28 315 9.4
2019-Dec-10 14:58 315 9.4
2019-Dec-10 14:28 315 9.4
2019-Dec-10 13:58 315 8.9
2019-Dec-10 13:33 315 9.4
2019-Dec-10 13:28 315 9.4
2019-Dec-10 12:58 315 10.0
2019-Dec-10 12:28 315 10.0
2019-Dec-10 11:58 315 10.6
2019-Dec-10 11:28 315 10.6
2019-Dec-10 10:58 315 10.6
2019-Dec-10 10:28 315 11.1
2019-Dec-10 09:58 315 11.7
2019-Dec-10 09:33 315 11.7
2019-Dec-10 09:28 315 11.7
2019-Dec-10 08:58 090 12.2
2019-Dec-10 08:28 292 13.9
2019-Dec-10 07:58 292 15.0
2019-Dec-10 07:28 292 18.3
2019-Dec-10 06:58 292 20.6
2019-Dec-10 06:33 292 21.7
2019-Dec-10 06:28 292 21.7
2019-Dec-10 05:58 292 21.7
2019-Dec-10 05:28 292 21.1
2019-Dec-10 04:58 090 20.0
2019-Dec-10 04:28 135 18.9
2019-Dec-10 04:18 135 18.3
2019-Dec-10 03:58 287 1 gusting 1 15.0
2019-Dec-10 03:28 270 15.0
2019-Dec-10 02:58 135 19.4
2019-Dec-10 02:28 225 19.4
2019-Dec-10 02:08 225 18.3
2019-Dec-10 01:38 225 17.8
2019-Dec-10 01:08 225 15.6
2019-Dec-10 00:38 225 13.9
2019-Dec-10 00:33 225 13.3
2019-Dec-10 00:08 225 11.1
2019-Dec-09 23:38 225 7.2
2019-Dec-09 23:08 225 7.2
2019-Dec-09 22:38 225 5.0
2019-Dec-09 22:33 225 4.4
2019-Dec-09 22:18 225 4.4
2019-Dec-09 22:08 225 4.4
2019-Dec-09 21:38 225 4.4
2019-Dec-09 21:08 225 4.4
2019-Dec-09 20:48 225 5.0
2019-Dec-09 20:38 225 5.0
2019-Dec-09 20:08 225 5.0
2019-Dec-09 19:38 225 5.0
2019-Dec-09 19:33 225 5.0
2019-Dec-09 19:08 225 5.6
2019-Dec-09 18:38 225 5.6
2019-Dec-09 18:08 225 5.0
2019-Dec-09 17:35 225 5.6
2019-Dec-09 17:08 225 6.1
2019-Dec-09 16:38 135 6.7
2019-Dec-09 16:08 135 6.7